Location: Les Coudrans
(46.1056°N, 1.1158°W)
Time: 17:10:17
(UTC+00:00)

Meteor 1-11 Rocket - Pass Details

Date: 03 March 2021
Orbit: 831 x 916 km, 81.2° (Epoch: 14 April)

Event Time Altitude Azimuth Distance (km) Brightness Sun altitude
Rises 19:23:28 0° 168° (SSE) 3,467 6.7 -16.3°
Reaches altitude 10° 19:26:01 10° 162° (SSE) 2,519 5.9 -16.7°
Maximum altitude 19:31:22 43° 93° (E) 1,194 4.0 -17.7°
Drops below altitude 10° 19:36:39 10° 23° (NNE) 2,484 6.0 -18.6°
Sets 19:39:09 0° 17° (NNE) 3,414 6.8 -19.0°
